Simultaneous Nadir Overpasses (SNOs) Predictions

Prediction of SNOs between GOES-16 and METOP-B Satellite Orbit:

Table of predicted SNOs for the next 14.0 days since TLE Epoch: 2/24/2017
Index Date Time (GOES-16) GOES-16 Lat,Lon METOP-B Lat,Lon Distance(km) Time Diff (sec)
1 02/25/2017 15:34:52 0.02, -89.51 0.21, -90.44 105.70 80
2 02/26/2017 15:11:33 0.02, -89.51 -0.89, -85.44 463.72 80
3 02/28/2017 03:33:13 -0.03, -89.47 -0.13, -90.04 63.92 80
4 03/02/2017 15:28:46 0.02, -89.52 0.02, -89.61 10.10 80
5 03/05/2017 03:27:07 -0.02, -89.49 0.06, -89.21 32.28 80
6 03/06/2017 15:45:58 0.02, -89.53 0.98, -93.77 482.93 80
7 03/07/2017 15:27:58 0.02, -89.54 -0.12, -88.77 86.71 80
8 03/09/2017 03:47:00 -0.01, -89.51 -0.85, -93.38 440.25 80
9 03/10/2017 03:23:40 -0.01, -89.52 0.26, -88.39 129.62 80




NCC Satellite Simultaneous Nadir Overpasses (SNOs) Prediction Service
